Year,Month,Day,Hour,Minute,Value (Times are PST for temperature in C)
2013,08,24,09,58,16.70
2013,08,24,09,59,16.80
2013,08,24,10,00,16.90
2013,08,24,10,01,17.10
2013,08,24,10,02,17.10
2013,08,24,10,03,17.20
2013,08,24,10,04,17.30
2013,08,24,10,05,17.40
2013,08,24,10,06,17.40
2013,08,24,10,07,17.40
2013,08,24,10,08,17.50
2013,08,24,10,09,17.50
2013,08,24,10,10,17.60
2013,08,24,10,11,17.60
2013,08,24,10,12,17.60
2013,08,24,10,13,17.70
2013,08,24,10,14,17.70
2013,08,24,10,15,17.70
2013,08,24,10,16,17.70
2013,08,24,10,17,17.80
2013,08,24,10,18,17.80
2013,08,24,10,19,17.80
2013,08,24,10,20,17.90
2013,08,24,10,21,18.00
2013,08,24,10,22,18.10
2013,08,24,10,23,18.20
2013,08,24,10,24,18.20
2013,08,24,10,25,18.20
2013,08,24,10,26,18.20
2013,08,24,10,27,18.20
2013,08,24,10,28,18.20
2013,08,24,10,29,18.30
2013,08,24,10,30,18.30
2013,08,24,10,31,18.40
2013,08,24,10,32,18.40
2013,08,24,10,33,18.50
2013,08,24,10,34,18.60
2013,08,24,10,35,18.60
2013,08,24,10,36,18.60
2013,08,24,10,37,18.60
2013,08,24,10,38,18.70
2013,08,24,10,39,18.70
2013,08,24,10,40,18.70
2013,08,24,10,41,18.70
2013,08,24,10,42,18.70
2013,08,24,10,43,18.70
2013,08,24,10,44,18.70
2013,08,24,10,45,18.80
2013,08,24,10,46,18.80
2013,08,24,10,47,18.80
2013,08,24,10,48,18.80
2013,08,24,10,49,18.80
2013,08,24,10,50,18.90
2013,08,24,10,51,18.90
2013,08,24,10,52,18.90
2013,08,24,10,53,18.90
2013,08,24,10,54,19.00
2013,08,24,10,55,19.00
2013,08,24,10,56,19.00
2013,08,24,10,57,18.90
2013,08,24,10,58,18.90
2013,08,24,10,59,18.90
2013,08,24,11,00,18.80
2013,08,24,11,01,18.70
2013,08,24,11,02,18.70
2013,08,24,11,03,18.70
2013,08,24,11,04,18.70
2013,08,24,11,05,18.70
2013,08,24,11,06,18.80
2013,08,24,11,07,18.80
2013,08,24,11,08,18.80
2013,08,24,11,09,18.80
2013,08,24,11,10,18.70
2013,08,24,11,11,18.70
2013,08,24,11,12,18.70
2013,08,24,11,13,18.70
2013,08,24,11,14,18.70
2013,08,24,11,15,18.70
2013,08,24,11,16,18.70
2013,08,24,11,17,18.70
2013,08,24,11,18,18.80
2013,08,24,11,19,18.80
2013,08,24,11,20,18.80
2013,08,24,11,21,18.70
2013,08,24,11,22,18.70
2013,08,24,11,23,18.60
2013,08,24,11,24,18.60
2013,08,24,11,25,18.60
2013,08,24,11,26,18.60
2013,08,24,11,27,18.60
2013,08,24,11,28,18.60
2013,08,24,11,29,18.60
2013,08,24,11,30,18.50
2013,08,24,11,31,18.50
2013,08,24,11,32,18.40
2013,08,24,11,33,18.40
2013,08,24,11,34,18.40
2013,08,24,11,35,18.40
2013,08,24,11,36,18.40
2013,08,24,11,37,18.40
2013,08,24,11,38,18.40
2013,08,24,11,39,18.40
2013,08,24,11,40,18.40
2013,08,24,11,41,18.40
2013,08,24,11,42,18.40
2013,08,24,11,43,18.40
2013,08,24,11,44,18.50
2013,08,24,11,45,18.60
2013,08,24,11,46,18.70
2013,08,24,11,47,18.70
2013,08,24,11,48,18.70
2013,08,24,11,49,18.80
2013,08,24,11,50,18.90
2013,08,24,11,51,19.10
2013,08,24,11,52,19.20
2013,08,24,11,53,19.20
2013,08,24,11,54,19.30
2013,08,24,11,55,19.30
2013,08,24,11,56,19.30
2013,08,24,11,57,19.20
2013,08,24,11,58,19.20
2013,08,24,11,59,19.20
2013,08,24,12,00,19.20
2013,08,24,12,01,19.20
2013,08,24,12,02,19.30
2013,08,24,12,03,19.30
2013,08,24,12,04,19.40
2013,08,24,12,05,19.40
2013,08,24,12,06,19.40
2013,08,24,12,07,19.40
2013,08,24,12,08,19.50
2013,08,24,12,09,19.40
2013,08,24,12,10,19.40
2013,08,24,12,11,19.40
2013,08,24,12,12,19.40
2013,08,24,12,13,19.40
2013,08,24,12,14,19.40
2013,08,24,12,15,19.40
2013,08,24,12,16,19.40
2013,08,24,12,17,19.30
2013,08,24,12,18,19.20
2013,08,24,12,19,19.20
2013,08,24,12,20,19.20
2013,08,24,12,21,19.20
2013,08,24,12,22,19.30
2013,08,24,12,23,19.30
2013,08,24,12,24,19.40
2013,08,24,12,25,19.50
2013,08,24,12,26,19.50
2013,08,24,12,27,19.60
2013,08,24,12,28,19.70
2013,08,24,12,29,19.80
2013,08,24,12,30,19.80
2013,08,24,12,31,19.90
2013,08,24,12,32,19.90
2013,08,24,12,33,20.00
2013,08,24,12,34,20.00
2013,08,24,12,35,20.00
2013,08,24,12,36,20.00
2013,08,24,12,37,19.90
2013,08,24,12,38,19.90
2013,08,24,12,39,19.80
2013,08,24,12,40,19.70
2013,08,24,12,41,19.60
2013,08,24,12,42,19.50
2013,08,24,12,43,19.40
2013,08,24,12,44,19.40
2013,08,24,12,45,19.40
2013,08,24,12,46,19.40
2013,08,24,12,47,19.50
2013,08,24,12,48,19.50
2013,08,24,12,49,19.50
2013,08,24,12,50,19.60
2013,08,24,12,51,19.60
2013,08,24,12,52,19.60
2013,08,24,12,53,19.60
2013,08,24,12,54,19.60
2013,08,24,12,55,19.60
2013,08,24,12,56,19.60
2013,08,24,12,57,19.60
2013,08,24,12,58,19.70
2013,08,24,12,59,19.70
2013,08,24,13,00,19.70
2013,08,24,13,01,19.70
2013,08,24,13,02,19.70
2013,08,24,13,03,19.70
2013,08,24,13,04,19.70
2013,08,24,13,05,19.70
2013,08,24,13,06,19.80
2013,08,24,13,07,19.80
2013,08,24,13,08,19.80
2013,08,24,13,09,19.80
2013,08,24,13,10,19.80
2013,08,24,13,11,19.70
2013,08,24,13,12,19.70
2013,08,24,13,13,19.60
2013,08,24,13,14,19.50
2013,08,24,13,15,19.40
2013,08,24,13,16,19.30
2013,08,24,13,17,19.30
2013,08,24,13,18,19.20
2013,08,24,13,19,19.10
2013,08,24,13,20,19.10
2013,08,24,13,21,19.10
2013,08,24,13,22,19.10
2013,08,24,13,23,19.00
2013,08,24,13,24,19.00
2013,08,24,13,25,19.00
2013,08,24,13,26,18.90
2013,08,24,13,27,18.90
2013,08,24,13,28,18.80
2013,08,24,13,29,18.70
2013,08,24,13,30,18.60
2013,08,24,13,31,18.60
2013,08,24,13,32,18.50
2013,08,24,13,33,18.40
2013,08,24,13,34,18.40
2013,08,24,13,35,18.40
2013,08,24,13,36,18.40
2013,08,24,13,37,18.40
2013,08,24,13,38,18.40
2013,08,24,13,39,18.40
2013,08,24,13,40,18.30
2013,08,24,13,41,18.30
2013,08,24,13,42,18.30
2013,08,24,13,43,18.40
2013,08,24,13,44,18.50
2013,08,24,13,45,18.50
2013,08,24,13,46,18.60
2013,08,24,13,47,18.70
2013,08,24,13,48,18.70
2013,08,24,13,49,18.80
2013,08,24,13,50,18.80
2013,08,24,13,51,18.90
2013,08,24,13,52,19.00
2013,08,24,13,53,19.10
2013,08,24,13,54,19.20
2013,08,24,13,55,19.20
2013,08,24,13,56,19.30
2013,08,24,13,57,19.30
2013,08,24,13,58,19.30
2013,08,24,13,59,19.20
2013,08,24,14,00,19.20
2013,08,24,14,01,19.20
2013,08,24,14,02,19.20
2013,08,24,14,03,19.20
2013,08,24,14,04,19.10
2013,08,24,14,05,19.00
2013,08,24,14,06,19.00
2013,08,24,14,07,18.90
2013,08,24,14,08,18.80
2013,08,24,14,09,18.80
2013,08,24,14,10,18.70
2013,08,24,14,11,18.70
2013,08,24,14,12,18.70
2013,08,24,14,13,18.80
2013,08,24,14,14,18.80
2013,08,24,14,15,18.80
2013,08,24,14,16,18.80
2013,08,24,14,17,18.80
2013,08,24,14,18,18.80
2013,08,24,14,19,18.80
2013,08,24,14,20,18.70
2013,08,24,14,21,18.70
2013,08,24,14,22,18.60
2013,08,24,14,23,18.50
2013,08,24,14,24,18.50
2013,08,24,14,25,18.50
2013,08,24,14,26,18.50
2013,08,24,14,27,18.40
2013,08,24,14,28,18.40
2013,08,24,14,29,18.30
2013,08,24,14,30,18.30
2013,08,24,14,31,18.20
2013,08,24,14,32,18.20
2013,08,24,14,33,18.20
2013,08,24,14,34,18.20
2013,08,24,14,35,18.20
2013,08,24,14,36,18.20
2013,08,24,14,37,18.10
2013,08,24,14,38,18.10
2013,08,24,14,39,18.10
2013,08,24,14,40,18.00
2013,08,24,14,41,18.00
2013,08,24,14,42,17.90
2013,08,24,14,43,17.80
2013,08,24,14,44,17.70
2013,08,24,14,45,17.70
2013,08,24,14,46,17.70
2013,08,24,14,47,17.70
2013,08,24,14,48,17.70
2013,08,24,14,49,17.70
2013,08,24,14,50,17.70
2013,08,24,14,51,17.70
2013,08,24,14,52,17.70
2013,08,24,14,53,17.70
2013,08,24,16,34,14.90
2013,08,24,16,35,14.90
2013,08,24,16,36,14.80
2013,08,24,16,37,14.90
2013,08,24,16,38,14.80
2013,08,24,16,39,14.90
2013,08,24,16,40,14.90
2013,08,24,16,41,15.00
2013,08,24,16,42,15.00
2013,08,24,16,43,15.00
2013,08,24,16,44,15.00
2013,08,24,16,45,15.00
2013,08,24,16,46,15.10
2013,08,24,16,47,15.20
2013,08,24,16,48,15.30
2013,08,24,16,49,15.40
2013,08,24,16,50,15.40
2013,08,24,16,51,15.40
2013,08,24,16,52,15.40
2013,08,24,16,53,15.50
2013,08,24,16,54,15.50
2013,08,24,16,55,15.50
2013,08,24,16,56,15.50
2013,08,24,16,57,15.50
2013,08,24,16,58,15.50
2013,08,24,16,59,15.50
2013,08,24,17,00,15.60
2013,08,24,17,01,15.60
2013,08,24,17,02,15.60
2013,08,24,17,03,15.70
2013,08,24,17,04,15.80
2013,08,24,17,05,15.80
2013,08,24,17,06,15.80
2013,08,24,17,07,15.90
2013,08,24,17,08,15.90
2013,08,24,17,09,15.90
2013,08,24,17,10,15.90
2013,08,24,17,11,16.00
2013,08,24,17,12,16.00
2013,08,24,17,13,16.10
2013,08,24,17,14,16.10
2013,08,24,17,15,16.10
2013,08,24,17,16,16.10
2013,08,24,17,17,16.10
2013,08,24,17,18,16.20
2013,08,24,17,19,16.20
2013,08,24,17,20,16.20
2013,08,24,17,21,16.30
2013,08,24,17,22,16.30
2013,08,24,17,23,16.30
2013,08,24,17,24,16.30
2013,08,24,17,25,16.40
2013,08,24,17,26,16.40
2013,08,24,17,27,16.40
2013,08,24,17,28,16.40
2013,08,24,17,29,16.50
2013,08,24,17,30,16.50
2013,08,24,17,31,16.50
2013,08,24,17,32,16.60
2013,08,24,17,33,16.60
2013,08,24,17,34,16.60
2013,08,24,17,35,16.70
2013,08,24,17,36,16.70
2013,08,24,17,37,16.70
2013,08,24,17,38,16.70
2013,08,24,17,39,16.80
2013,08,24,17,40,16.80
2013,08,24,17,41,16.80
2013,08,24,17,42,16.80
2013,08,24,17,43,16.80
2013,08,24,17,44,16.90
2013,08,24,17,45,16.90
2013,08,24,17,46,16.90
2013,08,24,17,47,16.90
2013,08,24,17,48,16.90
2013,08,24,17,49,16.90
2013,08,24,17,50,16.90
2013,08,24,17,51,16.90
2013,08,24,17,52,16.90
2013,08,24,17,53,16.90
2013,08,24,17,54,16.90
2013,08,24,17,55,17.00
2013,08,24,17,56,17.00
2013,08,24,17,57,17.10
2013,08,24,17,58,17.10
2013,08,24,17,59,17.10
2013,08,24,18,00,17.00
2013,08,24,18,01,17.00
2013,08,24,18,02,17.00
2013,08,24,18,03,17.00
2013,08,24,18,04,17.10
2013,08,24,18,05,17.10
2013,08,24,18,06,17.10
2013,08,24,18,07,17.10
2013,08,24,18,08,17.10
2013,08,24,18,09,17.10
2013,08,24,18,10,17.10
2013,08,24,18,11,17.10
2013,08,24,18,12,17.10
2013,08,24,18,13,17.10
2013,08,24,18,14,17.10
2013,08,24,18,15,17.10
2013,08,24,18,16,17.10
2013,08,24,18,17,17.10
2013,08,24,18,18,17.20
2013,08,24,18,19,17.20
2013,08,24,18,20,17.20
2013,08,24,18,21,17.20
2013,08,24,18,22,17.20
2013,08,24,18,23,17.20
2013,08,24,18,24,17.30
2013,08,24,18,25,17.20
2013,08,24,18,26,17.20
2013,08,24,18,27,17.20
2013,08,24,18,28,17.30
2013,08,24,18,29,17.20
2013,08,24,18,30,17.20
2013,08,24,18,31,17.30
2013,08,24,18,32,17.30
2013,08,24,18,33,17.30
2013,08,24,18,34,17.30
2013,08,24,18,35,17.40
2013,08,24,18,36,17.40
2013,08,24,18,37,17.40
2013,08,24,18,38,17.40
2013,08,24,18,39,17.50
2013,08,24,18,40,17.50
2013,08,24,18,41,17.50
2013,08,24,18,42,17.60
2013,08,24,18,43,17.60
2013,08,24,18,44,17.60
2013,08,24,18,45,17.60
2013,08,24,18,46,17.60
2013,08,24,18,47,17.60
2013,08,24,18,48,17.60
2013,08,24,18,49,17.60
2013,08,24,18,50,17.60
2013,08,24,18,51,17.60
2013,08,24,18,52,17.60
2013,08,24,18,53,17.50
2013,08,24,18,54,17.50
2013,08,24,18,55,17.50
2013,08,24,18,56,17.50
2013,08,24,18,57,17.50
2013,08,24,18,58,17.50
2013,08,24,18,59,17.50
2013,08,24,19,00,17.50
2013,08,24,19,01,17.50
2013,08,24,19,02,17.50
2013,08,24,19,03,17.50
